Flag for Burundi Weather past 2 weeks in Muyinga, Burundi

Now
66 °F

Passing clouds.


Feels Like: 66 °F
Forecast: 58 / 77 °F
Wind: No wind

Location: Kigali Airport

Current Time: Sep 17, 2014 at 11:54:26 PM

Latest Report: Sep 17, 2014 at 11:30 PM


Visibility: N/A

Pressure: 30.12 "Hg

Humidity: 83%

Dew point: 61 °F

Location of MuyingaLocation

Historic Weather in Muyinga — Graph

°F

Muyinga temperature yesterday

Maximum temperature yesterday: 82 °F (at 2:30 PM)
Minimum temperature yesterday: 63 °F (at 4:30 AM)
Average temperature yesterday: 72 °F

Past Weeks' High & Low Weather Summary

 TemperatureHumidityPressure
High86 °F (Sep 12, 3:00 PM)100% (Sep 3, 4:00 AM)30.30 "Hg (Sep 3, 4:00 AM)
Low52 °F (Sep 11, 2:00 AM)32% (Sep 12, 5:30 PM)30.01 "Hg (Sep 10, 4:00 PM)
Average69 °F77%30.14 "Hg
* Reported Sep 2 10:00 PM — Sep 17 10:30 PM, Muyinga, Weather by CustomWeather, © 2014

Note: Actual official high and low records may vary slightly from our data, if they occured in-between our weather recording intervals... More about our weather records

Advertising

Muyinga weather history for previous 24 hours

 ConditionsComfort  
Time TempWeatherWind HumidityBarometerVisibility
10:30 PM
Sep 17
68 °FPassing clouds.No wind78%30.12 "HgN/A
10:00 PM68 °FPassing clouds.No wind78%30.12 "HgN/A
9:30 PM68 °FPassing clouds.5 mph78%30.09 "HgN/A
9:00 PM68 °FPassing clouds.5 mph73%30.09 "HgN/A
8:30 PM70 °FPassing clouds.6 mph73%30.09 "HgN/A
8:00 PM70 °FPassing clouds.3 mph73%30.07 "HgN/A
7:30 PM70 °FPassing clouds.3 mph78%30.07 "HgN/A
7:00 PM70 °FPassing clouds.3 mph73%30.07 "HgN/A
6:00 PM70 °FPassing clouds.7 mph78%30.07 "HgN/A
5:30 PM72 °FScattered clouds.7 mph73%30.04 "HgN/A
5:00 PM72 °FScattered clouds.7 mph73%30.04 "HgN/A
4:30 PM73 °FScattered clouds.9 mph69%30.04 "HgN/A
4:00 PM73 °FScattered clouds.9 mph74%30.01 "HgN/A
3:30 PM77 °FScattered clouds.7 mph69%30.04 "HgN/A
3:00 PM77 °FScattered clouds.7 mph65%30.04 "HgN/A
1:30 PM75 °FScattered clouds.3 mph69%30.07 "HgN/A
12:30 PM64 °FPartly sunny.7 mph100%30.15 "HgN/A
12:00 PM64 °FLight rain. Partly sunny.5 mph100%30.15 "Hg5 mi
11:30 AM70 °FLight rain. Partly sunny.14 mph94%30.12 "Hg4 mi
11:00 AM77 °FPartly sunny.7 mph57%30.12 "HgN/A
10:30 AM79 °FPartly sunny.3 mph54%30.15 "HgN/A
10:00 AM77 °FPartly sunny.6 mph61%30.15 "HgN/A
9:30 AM77 °FScattered clouds.3 mph61%30.18 "HgN/A
9:00 AM75 °FPartly sunny.3 mph65%30.18 "HgN/A
8:30 AM72 °FPartly sunny.No wind69%30.18 "HgN/A
8:00 AM70 °FPartly sunny.5 mph73%30.15 "HgN/A
7:30 AM70 °FScattered clouds.5 mph73%30.15 "Hg5 mi
7:00 AM66 °FScattered clouds.3 mph83%30.12 "HgN/A
6:30 AM64 °FScattered clouds.3 mph88%30.12 "HgN/A
6:00 AM64 °FScattered clouds.3 mph88%30.12 "HgN/A
5:30 AM64 °FPassing clouds.3 mph88%30.09 "HgN/A
5:00 AM66 °FPassing clouds.3 mph83%30.09 "HgN/A
4:30 AM64 °FPassing clouds.5 mph88%30.09 "HgN/A
3:30 AM66 °FPassing clouds.5 mph78%30.07 "HgN/A
3:00 AM66 °FPassing clouds.3 mph78%30.07 "HgN/A
2:30 AM66 °FPassing clouds.5 mph78%30.07 "HgN/A
2:00 AM64 °FPassing clouds.3 mph88%30.07 "HgN/A
1:30 AM68 °FPassing clouds.6 mph78%30.07 "HgN/A
1:00 AM68 °FPassing clouds.3 mph78%30.07 "HgN/A
12:30 AM68 °FPassing clouds.6 mph73%30.07 "HgN/A
12:00 AM70 °FPassing clouds.5 mph73%30.09 "HgN/A
11:30 PM
Sep 16
70 °FPassing clouds.3 mph69%30.09 "HgN/A
11:00 PM70 °FPassing clouds.6 mph69%30.09 "HgN/A
Weather by CustomWeather, © 2014

See weather overviewHow to use our weather pages